This is the latest recevied weather packets stored in our database for station/object SR5NLK-1. If no packets are shown the sender has not sent any weather packets the latest 1 day(s).
| Time | Temp. | Humidity | Pressure | Rain* | Wind** | Luminosity | Snow |
|---|---|---|---|---|---|---|---|
| 1778041951 | 12.78° C | 75% | 1075.2 hPa | 0 mm | - | - | - |
| 1778041051 | 12.78° C | 73% | 1084.6 hPa | 0 mm | - | - | - |
| 1778040570 | 13.33° C | 72% | 1042.8 hPa | 0 mm | - | - | - |
| 1778040451 | 13.33° C | 72% | 1058.5 hPa | 0 mm | - | - | - |
| 1778040151 | 13.89° C | 73% | 1087.8 hPa | 0 mm | - | - | - |
| 1778039851 | 13.89° C | 76% | 1036.5 hPa | 0 mm | - | - | - |
| 1778039551 | 13.33° C | 78% | 1072.1 hPa | 0 mm | - | - | - |
| 1778039251 | 12.78° C | 80% | 1082.4 hPa | 0 mm | - | - | - |
| 1778038951 | 12.22° C | 80% | 1049.1 hPa | 0 mm | - | - | - |
| 1778038651 | 11.67° C | 80% | 995.3 hPa | 0 mm | - | - | - |
| 1778038590 | 11.67° C | 80% | 927 hPa | 0 mm | - | - | - |
| 1778038351 | 11.67° C | 80% | 1030.3 hPa | 0 mm | - | - | - |
| 1778037751 | 11.11° C | 79% | 1043.1 hPa | 0 mm | - | - | - |
| 1778037451 | 11.11° C | 79% | 1078.4 hPa | 0 mm | - | - | - |
| 1778037151 | 11.11° C | 79% | 997.9 hPa | 0 mm | - | - | - |
| 1778036851 | 11.11° C | 78% | 1055.4 hPa | 0 mm | - | - | - |
| 1778036610 | 11.11° C | 78% | 1089.8 hPa | 0 mm | - | - | - |
| 1778036251 | 11.11° C | 77% | 1075.2 hPa | 0 mm | - | - | - |
| 1778035651 | 11.11° C | 77% | 1046 hPa | 0 mm | - | - | - |
| 1778035351 | 11.11° C | 76% | 1084.7 hPa | 0 mm | - | - | - |
| 1778034451 | 11.11° C | 76% | 1055.4 hPa | 0 mm | - | - | - |
| 1778034151 | 11.11° C | 76% | 988.4 hPa | 0 mm | - | - | - |
| 1778033851 | 11.11° C | 75% | 1072.1 hPa | 0 mm | - | - | - |
* Rain latest hour (hover to see other rain measurements)
** Current wind speed in m/s (hover to see current wind gust speed)